Weather History for KCMH - October, 2011

Change the Weather History Date:

Monday, October 3, 2011

  Actual Average Record
Temperature  
Mean Temperature 50 °F 60 °F  
Max Temperature 57 °F 70 °F 89 °F (1953)
Min Temperature 42 °F 49 °F 31 °F (1888)
Degree Days  
Heating Degree Days 15 7  
Month to date heating degree days 47 19  
Since 1 July heating degree days 118 88  
Cooling Degree Days 0 1  
Month to date cooling degree days 0 4  
Year to date cooling degree days 1253 1015  
Moisture  
Dew Point 46 °F    
Average Humidity 81    
Maximum Humidity 96    
Minimum Humidity 66    
Precipitation  
Precipitation 0.07 in 0.08 in 1.69 in (1986)
Month to date precipitation 0.12 0.25  
Year to date precipitation 41.19 30.78  
Snow  
Snow 0.00 in 0.00 in - ()
Month to date snowfall 0.0 0.0  
Since 1 July snowfall 0.0 0.0  
Since 1 September snowfall 0.0 0.0  
Snow Depth 0.00 in    
Sea Level Pressure  
Sea Level Pressure 30.12 in    
Wind  
Wind Speed 4 mph (NW)    
Max Wind Speed 14 mph    
Max Gust Speed 16 mph    
Visibility 10 miles    
Events Rain    
T = Trace of Precipitation, MM = Missing Value Source: NWS Daily Summary

Daily Weather History Graph

Daily Weather History Graph

Search for Another Location

Airport or City:

Trip Planner

Search our weather history database for the weather conditions in past years. The results will help you decide how hot, cold, wet, or windy it might be!

Date:

Astronomy

Oct. 03, 2011 Rise Set
Actual Time 7:29 AM EDT 7:11 PM EDT
Civil Twilight 7:02 AM EDT 7:38 PM EDT
Nautical Twilight 6:31 AM EDT 8:09 PM EDT
Astronomical Twilight 5:59 AM EDT 8:40 PM EDT
Moon 2:26 PM EDT (10/3) No Moon Set
Length of Visible Light 12h 35m
Length of Day
11h 41m
Waxing Crescent, 45% of the Moon is Illuminated
Oct 3
Waxing Crescent
Oct 3
First Quarter
Oct 11
Full
Oct 19
Last Quarter
Oct 26
New

Hourly Weather History & Observations

Time (EDT) Temp. Windchill Dew Point Humidity Pressure Visibility Wind Dir Wind Speed Gust Speed Precip Events Conditions
12:51 AM 48.2 °F - 42.8 °F 82% 30.07 in 10.0 mi North 5.8 mph - N/A   Mostly Cloudy
1:23 AM 50.0 °F - 41.0 °F 71% 30.05 in 10.0 mi NW 3.5 mph - N/A   Overcast
1:51 AM 48.9 °F - 42.1 °F 77% 30.05 in 10.0 mi NW 4.6 mph - N/A   Overcast
2:40 AM 48.2 °F - 41.0 °F 76% 30.06 in 10.0 mi NW 6.9 mph - N/A   Partly Cloudy
2:51 AM 48.0 °F - 41.0 °F 77% 30.06 in 10.0 mi NW 6.9 mph - N/A   Partly Cloudy
3:51 AM 46.9 °F - 41.0 °F 80% 30.06 in 10.0 mi NW 6.9 mph - N/A   Scattered Clouds
4:51 AM 46.0 °F - 41.0 °F 83% 30.09 in 10.0 mi Calm Calm - N/A   Partly Cloudy
5:51 AM 43.0 °F - 41.0 °F 93% 30.09 in 10.0 mi Calm Calm - N/A   Partly Cloudy
6:51 AM 45.0 °F 42.6 °F 41.0 °F 86% 30.09 in 10.0 mi West 4.6 mph - N/A   Mostly Cloudy
7:51 AM 46.4 °F 43.5 °F 42.8 °F 87% 30.10 in 10.0 mi NW 5.8 mph - N/A Rain Light Rain
8:51 AM 46.0 °F 43.9 °F 44.1 °F 93% 30.11 in 7.0 mi West 4.6 mph - 0.04 in Rain Light Rain
9:51 AM 46.4 °F - 44.6 °F 93% 30.12 in 10.0 mi Calm Calm - N/A   Mostly Cloudy
10:51 AM 48.0 °F - 44.1 °F 86% 30.14 in 9.0 mi WSW 3.5 mph - 0.01 in   Overcast
11:51 AM 50.0 °F - 46.9 °F 89% 30.12 in 10.0 mi SSW 4.6 mph - N/A   Overcast
12:51 PM 53.6 °F - 44.6 °F 72% 30.10 in 10.0 mi WNW 6.9 mph - N/A   Overcast
1:51 PM 55.9 °F - 46.0 °F 69% 30.11 in 10.0 mi North 3.5 mph - N/A   Overcast
2:51 PM 55.9 °F - 44.1 °F 64% 30.11 in 10.0 mi NNW 3.5 mph - N/A   Mostly Cloudy
3:51 PM 55.9 °F - 46.0 °F 69% 30.12 in 10.0 mi North 4.6 mph - N/A   Overcast
4:51 PM 53.1 °F - 51.1 °F 93% 30.13 in 10.0 mi North 8.1 mph - 0.00 in Rain Light Rain
5:02 PM 53.6 °F - 51.8 °F 94% 30.13 in 3.0 mi North 5.8 mph - 0.01 in Rain Light Rain
5:33 PM 53.6 °F - 51.8 °F 94% 30.13 in 10.0 mi NNW 6.9 mph - N/A   Light Drizzle
5:51 PM 54.0 °F - 52.0 °F 93% 30.14 in 10.0 mi NNW 4.6 mph - 0.01 in   Overcast
6:51 PM 54.0 °F - 52.0 °F 93% 30.15 in 10.0 mi Calm Calm - 0.01 in   Overcast
7:51 PM 54.0 °F - 52.0 °F 93% 30.16 in 10.0 mi Calm Calm - 0.00 in   Overcast
8:51 PM 54.0 °F - 52.0 °F 93% 30.17 in 10.0 mi Calm Calm - N/A   Overcast
9:51 PM 54.0 °F - 52.0 °F 93% 30.18 in 10.0 mi West 3.5 mph - N/A   Overcast
10:51 PM 55.0 °F - 52.0 °F 89% 30.19 in 10.0 mi WNW 3.5 mph - N/A   Mostly Cloudy
11:51 PM 55.0 °F - 52.0 °F 89% 30.19 in 10.0 mi WNW 5.8 mph - N/A   Overcast